[[{"header":{"parameterUnit":"m.s-1","parameterCategory":1,"la1":30.2991,"la2":30.254,"lo1":-89.0895,"lo2":-89.0444,"dy":0.0017,"dx":0.0017,"nx":28,"ny":28,"refTime":"2025-07-19T03:00:00:Z","depth":0,"parameterNumber":2,"parameterNumberName":"U-component_of_WINDS"},"data":[0,0,0,0,0,0,0,0,0,0,0,0,0,0,0,0,0,0,0,0,0,0,0,0,0,0,0,0,0,0,0,0,0,0,0,0,0,0,0,0,0,0,0,0,0,0,0,0,0,0,0,0,0,0,0,0,0,0,3.2408,3.2408,0,3.2436,3.2437,3.2437,3.2374,3.2372,3.237,3.2368,3.2398,3.2401,3.2403,0,0,0,0,0,0,0,0,0,0,0,0,0,3.2299,3.2301,3.2408,3.2408,3.2409,3.2436,3.2437,3.2437,3.2375,3.2372,3.237,3.2368,3.2397,3.24,3.2404,0,0,0,0,0,0,0,0,0,0,0,0,0,3.2339,3.2302,3.2408,3.2381,3.2379,3.2436,3.2437,3.2437,3.2375,3.2372,3.2369,3.2366,3.2396,3.24,3.2404,3.2489,0,0,3.2416,3.2418,0,0,0,0,0,0,0,0,3.2337,3.2343,3.2385,3.2383,3.2381,3.2399,3.2409,3.2455,3.2376,3.2377,3.2368,3.2365,3.2401,3.2404,3.2416,3.2491,3.2492,3.2417,3.2419,3.2421,3.2422,0,0,0,0,0,0,0,3.2334,3.2341,3.2419,3.2385,3.2383,3.2367,3.2369,3.2417,3.2405,3.2376,3.2372,3.2376,3.2399,3.2413,3.2416,3.2492,3.2417,3.242,3.2423,3.2424,3.2633,3.2636,0,0,0,0,0,0,3.2335,3.2339,3.2418,3.242,3.2351,3.2371,3.2374,3.2396,3.2405,3.2403,3.2379,3.2373,3.2407,3.2412,3.2417,3.2514,3.2421,3.2425,3.2427,3.263,3.2634,3.2637,0,0,0,0,0,0,3.2333,3.2342,3.2417,3.2379,3.2387,3.2377,3.2402,3.2398,3.2411,3.2406,3.2404,3.2394,3.2405,3.2412,3.2471,3.2514,3.2426,3.243,3.2626,3.2631,3.2636,3.271,0,0,0,0,0,0,3.233,3.2342,3.2375,3.238,3.2389,3.2471,3.2405,3.2401,3.2418,3.2411,3.2421,3.2419,3.2403,3.2465,3.2475,3.2518,3.2433,3.2622,3.2628,3.2634,3.2703,3.2716,3.2727,0,0,0,0,0,3.2326,3.2396,3.2377,3.2387,3.243,3.2473,3.2479,3.2459,3.2422,3.2454,3.245,3.2419,3.2508,3.2472,3.2482,3.2527,3.2619,3.2627,3.2634,3.2698,3.2714,3.2727,0,0,0,0,0,0,3.2397,3.2396,3.2375,3.2448,3.2461,3.2463,3.2503,3.2477,3.2501,3.2493,3.2468,3.247,3.2533,3.2537,3.2496,3.2608,3.2558,3.2567,3.2603,3.2618,3.263,3.2626,3.2436,0,0,0,0,0,3.2421,3.2457,3.2454,3.2519,3.2526,3.2514,3.2532,3.2515,3.2528,3.2533,3.2534,3.2547,3.2577,3.2599,3.2627,3.2704,3.2703,3.274,3.2752,3.2762,3.277,3.2807,3.2822,3.2661,3.266,3.266,0,0,3.2472,3.2475,3.25,3.2533,3.2541,3.2577,3.2519,3.2561,3.2587,3.254,3.2594,3.2595,3.2608,3.2675,3.2705,3.268,3.2814,3.2771,3.2779,3.2781,3.2816,3.2831,3.2844,3.2665,3.2664,3.2664,0,0,3.2581,3.2589,3.2641,3.265,3.2662,3.2653,3.2666,3.2671,3.2669,3.2723,3.2687,3.2718,3.2773,3.2782,3.2794,3.2904,3.2875,3.2915,3.2977,3.3013,3.3026,3.3037,3.3072,3.3086,3.2923,3.2923,3.2923,0,3.2642,3.2695,3.2672,3.2715,3.2729,3.2687,3.2739,3.2749,3.2771,3.2781,3.2753,3.2817,3.2824,3.2891,3.2917,3.293,3.2941,3.2912,3.3026,3.3037,3.3047,3.308,3.3094,3.2927,3.2927,3.2926,3.2926,0,3.2767,3.2804,3.2845,3.2864,3.2884,3.2932,3.2915,3.2938,3.2919,3.2912,3.2966,3.2972,3.2998,3.3014,3.2997,3.3078,3.3061,3.303,3.2979,3.3067,3.3097,3.311,3.2934,3.2932,3.2931,3.293,0,0,3.2921,3.2926,3.2941,3.2947,3.2957,3.2985,3.303,3.3055,3.3072,3.3089,3.3124,3.317,3.314,3.3153,3.3137,3.317,3.3251,3.3134,3.3134,3.3152,3.3336,3.3356,3.3372,3.3233,3.3235,3.3237,3.3333,0,3.3026,3.3101,3.3081,3.3156,3.3188,3.3147,3.3186,3.3195,3.319,3.3216,3.3211,3.3242,3.3202,3.3209,3.324,3.3235,3.3287,3.3228,3.3263,3.3264,3.3257,3.3388,3.3411,3.3501,3.3345,3.3348,3.3349,0,3.3158,3.3176,3.3254,3.3254,3.3267,3.3302,3.3321,3.3347,3.3356,3.335,3.3364,3.334,3.3383,3.3333,3.339,3.335,3.3363,3.3363,3.3366,3.3365,3.331,3.3388,3.353,3.3542,3.3369,3.3367,3.3366,0,3.3257,3.3302,3.3353,3.336,3.3364,3.3388,3.3391,3.3397,3.3412,3.343,3.3438,3.3462,3.3473,3.3491,3.3474,3.344,3.3532,3.3482,3.3525,3.3526,3.3544,3.3542,3.3686,3.3559,3.3559,3.3559,3.3558,0,3.3374,3.3422,3.3397,3.3428,3.3479,3.3456,3.3507,3.3506,3.3511,3.354,3.3508,3.3536,3.3513,3.3539,3.3526,3.3572,3.3579,3.3573,3.3569,3.3574,3.3574,3.358,3.3572,3.3562,3.3561,3.3561,3.356,0,3.3492,3.3478,3.353,3.3528,3.3528,3.3566,3.3564,3.3592,3.3584,3.3621,3.3628,3.3616,3.3644,3.3629,3.3659,3.365,3.3709,3.3698,3.3705,3.37,3.3743,3.3738,3.3893,3.3911,3.3776,3.3777,3.3778,0,3.3566,3.3601,3.3602,3.3618,3.3622,3.365,3.3664,3.3643,3.3659,3.367,3.3696,3.3721,3.374,3.3787,3.378,3.3802,3.3788,3.3841,3.3791,3.3794,3.3784,3.3781,3.3782,3.385,3.3852,3.3853,3.3854,0,3.3696,3.3687,3.3708,3.3727,3.3745,3.3759,3.377,3.3786,3.3763,3.3783,3.3811,3.3825,3.3854,3.3878,3.3897,3.3899,3.3872,3.387,3.3881,3.3885,3.3886,3.3882,3.3728,3.3866,3.3865,3.3864,3.3863,3.3863,3.3792,3.382,3.3823,3.3848,3.3853,3.3864,3.3889,3.3883,3.3905,3.3926,3.3912,3.3943,3.3949,3.3971,3.3976,3.4,3.3978,3.3995,3.3998,3.4002,3.4005,3.3885,3.4004,3.4003,3.4003,3.4003,3.4002,0,3.3917,3.3917,3.3939,3.3954,3.3973,3.3947,3.3957,3.3974,3.4002,3.4009,3.4027,3.4058,3.408,3.4075,3.4095,3.4115,3.4103,3.4121,3.4117,3.4118,3.4025,3.4012,3.413,3.413,3.413,3.413,3.413,3.413,3.3984,3.4028,3.4018,3.4064,3.4064,3.4093,3.4101,3.411,3.4115,3.415,3.4168,3.4164,3.4166,3.4185,3.4205,3.4202,3.421,3.4231,3.4224,3.4137,3.4125,3.4112,3.41,3.4234,3.4234,3.4313,3.4314,3.4315]},{"header":{"parameterUnit":"m.s-1","parameterCategory":1,"la1":30.2991,"la2":30.254,"lo1":-89.0895,"lo2":-89.0444,"dy":0.0017,"dx":0.0017,"nx":28,"ny":28,"refTime":"2025-07-19T03:00:00:Z","depth":0,"parameterNumber":3,"parameterNumberName":"V-component_of_WINDS"},"data":[0,0,0,0,0,0,0,0,0,0,0,0,0,0,0,0,0,0,0,0,0,0,0,0,0,0,0,0,0,0,0,0,0,0,0,0,0,0,0,0,0,0,0,0,0,0,0,0,0,0,0,0,0,0,0,0,0,0,3.283,3.2831,0,3.2959,3.2961,3.2962,3.2977,3.2976,3.2974,3.2973,3.3103,3.3108,3.3112,0,0,0,0,0,0,0,0,0,0,0,0,0,3.2591,3.2596,3.283,3.2831,3.2833,3.2959,3.2961,3.2963,3.2977,3.2976,3.2974,3.2973,3.3102,3.3107,3.3113,0,0,0,0,0,0,0,0,0,0,0,0,0,3.2705,3.2597,3.2829,3.2856,3.2859,3.2959,3.2961,3.2963,3.2978,3.2976,3.2974,3.2972,3.31,3.3107,3.3114,3.3195,0,0,3.3135,3.3138,0,0,0,0,0,0,0,0,3.2699,3.2714,3.285,3.2854,3.2858,3.295,3.2925,3.3041,3.2978,3.2933,3.2973,3.2971,3.3054,3.3064,3.3093,3.3201,3.3207,3.3136,3.314,3.3143,3.3145,0,0,0,0,0,0,0,3.2691,3.2708,3.2881,3.2852,3.2857,3.2859,3.2874,3.2947,3.3002,3.2936,3.2938,3.2953,3.3056,3.3086,3.3096,3.3209,3.3135,3.3142,3.3146,3.3149,3.3388,3.339,0,0,0,0,0,0,3.2678,3.2702,3.2877,3.2885,3.2772,3.2865,3.2881,3.2922,3.3002,3.3012,3.2955,3.2953,3.3075,3.3088,3.3101,3.32,3.3143,3.3149,3.3153,3.3386,3.3389,3.3391,0,0,0,0,0,0,3.2673,3.2694,3.2872,3.2794,3.2817,3.2872,3.2918,3.2926,3.2957,3.3015,3.3025,3.2976,3.3074,3.3091,3.3171,3.3205,3.3152,3.3159,3.3384,3.3387,3.339,3.34,0,0,0,0,0,0,3.2666,3.2692,3.2725,3.2794,3.2821,3.2941,3.292,3.293,3.2969,3.2969,3.3038,3.3047,3.3074,3.3161,3.3178,3.3213,3.3164,3.3381,3.3385,3.3389,3.3397,3.3403,3.3408,0,0,0,0,0,3.2658,3.2722,3.2726,3.2747,3.2863,3.2943,3.2958,3.2988,3.2972,3.3004,3.3041,3.3045,3.3198,3.3169,3.3189,3.3226,3.3379,3.3384,3.3389,3.3394,3.3402,3.3408,0,0,0,0,0,0,3.2655,3.2732,3.2737,3.2827,3.2878,3.2946,3.2988,3.2996,3.3053,3.305,3.3083,3.3099,3.3177,3.321,3.3176,3.3308,3.3287,3.3296,3.3284,3.3292,3.3298,3.3288,3.317,0,0,0,0,0,3.2665,3.2725,3.2788,3.2861,3.2887,3.2933,3.2969,3.2987,3.3042,3.3064,3.3107,3.3159,3.3218,3.3257,3.3315,3.3402,3.3416,3.3437,3.3443,3.3447,3.3454,3.35,3.351,3.3407,3.3407,3.3407,0,0,3.2685,3.2735,3.2771,3.2861,3.2904,3.2964,3.2951,3.3015,3.306,3.3073,3.3152,3.3185,3.3245,3.3328,3.3367,3.3358,3.3486,3.3454,3.3457,3.3462,3.3506,3.3516,3.3524,3.3411,3.341,3.3409,0,0,3.2754,3.2798,3.2862,3.2905,3.2969,3.2999,3.3014,3.308,3.3103,3.3182,3.3193,3.3245,3.3348,3.339,3.3424,3.3506,3.3511,3.3524,3.3554,3.3598,3.3606,3.3614,3.3641,3.3651,3.3531,3.3531,3.3531,0,3.2771,3.2863,3.2894,3.2958,3.2996,3.3012,3.3076,3.3115,3.3195,3.322,3.3209,3.3337,3.3378,3.347,3.349,3.3518,3.3535,3.3516,3.3603,3.361,3.3618,3.3644,3.3655,3.3532,3.3532,3.3532,3.3532,0,3.288,3.2943,3.2987,3.3064,3.3107,3.3171,3.321,3.3251,3.3265,3.3295,3.3374,3.3425,3.3492,3.3516,3.353,3.3609,3.3601,3.3596,3.3575,3.3628,3.3653,3.3664,3.3534,3.3533,3.3533,3.3533,0,0,3.2951,3.3043,3.3058,3.3092,3.3163,3.3212,3.3275,3.3342,3.3375,3.3429,3.3481,3.3567,3.3562,3.3601,3.362,3.3659,3.3718,3.3649,3.3651,3.3659,3.3806,3.3809,3.382,3.3722,3.3724,3.3726,3.38,0,3.3026,3.314,3.3169,3.3266,3.3323,3.3338,3.3392,3.3441,3.3471,3.3523,3.3555,3.3615,3.3605,3.3628,3.3667,3.3703,3.3748,3.3698,3.377,3.3772,3.3753,3.3834,3.3837,3.3905,3.3811,3.3812,3.3814,0,3.3129,3.3185,3.3287,3.3349,3.3374,3.3423,3.3485,3.3536,3.359,3.3609,3.3652,3.3667,3.3731,3.3707,3.3795,3.376,3.3791,3.3813,3.3816,3.3823,3.3795,3.3841,3.3928,3.3938,3.383,3.3829,3.3827,0,3.3168,3.3269,3.3343,3.3372,3.3446,3.348,3.3512,3.3565,3.3602,3.3656,3.368,3.3741,3.3774,3.382,3.385,3.383,3.3935,3.3914,3.3951,3.395,3.3972,3.397,3.4063,3.3994,3.3994,3.3993,3.3993,0,3.3249,3.331,3.3361,3.3407,3.3475,3.3507,3.3574,3.3606,3.3653,3.3703,3.3719,3.3766,3.3804,3.3855,3.3879,3.3947,3.3962,3.3978,3.3983,3.3976,3.3974,3.3996,3.3992,3.3996,3.3996,3.3995,3.3994,0,3.3304,3.3341,3.3422,3.3485,3.3502,3.355,3.3603,3.3647,3.3677,3.374,3.3757,3.3803,3.3864,3.3899,3.3976,3.3992,3.4067,3.4071,3.4049,3.4051,3.4086,3.4081,3.4196,3.4211,3.4133,3.4133,3.4134,0,3.3352,3.34,3.3468,3.3503,3.3536,3.3593,3.3631,3.3663,3.3702,3.3767,3.3802,3.3864,3.3916,3.4012,3.4052,3.411,3.4115,3.4151,3.4124,3.4114,3.4113,3.411,3.4114,3.4155,3.4156,3.4156,3.4157,0,3.3434,3.3449,3.3504,3.3565,3.3609,3.3659,3.3708,3.3735,3.3776,3.3818,3.3881,3.3921,3.3999,3.406,3.4121,3.4153,3.4161,3.4165,3.4176,3.4169,3.4153,3.416,3.4061,3.4162,3.4162,3.4161,3.4161,3.4161,3.3486,3.3528,3.3582,3.3642,3.3682,3.3727,3.377,3.3805,3.3858,3.3925,3.394,3.4006,3.4057,3.414,3.4174,3.4224,3.4218,3.4235,3.4239,3.4242,3.4242,3.4146,3.4236,3.4236,3.4236,3.4235,3.4235,0,3.3566,3.3601,3.3656,3.3724,3.377,3.3775,3.3828,3.3866,3.3924,3.3972,3.4022,3.4093,3.4151,3.4195,3.4255,3.4287,3.4292,3.4301,3.4299,3.4305,3.4246,3.4229,3.4296,3.4296,3.4296,3.4296,3.4296,3.4296,3.3614,3.3685,3.3706,3.3796,3.3831,3.3896,3.3925,3.3966,3.4004,3.4083,3.4132,3.416,3.4205,3.4268,3.4321,3.4333,3.4353,3.4362,3.4373,3.4316,3.431,3.4303,3.4288,3.4366,3.4366,3.4428,3.4429,3.4429]}]]